Location: Blue Pit
(43.1414°N, 93.2208°W)
Time: 02:37:34
(UTC+00:00)

SJ-12 - Pass Details

Date: 18 November 2025
Orbit: 517 x 528 km, 97.8° (Epoch: 08 December)

Event Time Altitude Azimuth Distance (km) Brightness Sun altitude
Rises 23:24:05 0° 151° (SSE) 2,641 7.2 -7.2°
Reaches altitude 10° 23:26:14 10° 145° (SE) 1,755 6.2 -7.6°
Maximum altitude 23:29:51 44° 72° (ENE) 733 4.0 -8.2°
Drops below altitude 10° 23:33:28 10° 0° (N) 1,762 6.2 -8.8°
Sets 23:35:38 0° 354° (N) 2,654 7.2 -9.2°
